Location: Casteau
(50.5142°N, 4.0161°E)
Time: 19:22:48
(UTC+00:00)

Tiros 1 - Pass Details

Date: 07 August 2021
Orbit: 630 x 663 km, 48.4° (Epoch: 28 September)

Event Time Altitude Azimuth Distance (km) Brightness Sun altitude
Rises 20:37:47 0° 281° (W) 2,982 11.6 -11.2°
Reaches altitude 10° 20:40:20 10° 271° (W) 2,063 10.5 -11.5°
Maximum altitude 20:44:31 31° 209° (SSW) 1,129 8.3 -12.0°
Enters shadow 20:47:30 16° 156° (SSE) 1,665 8.7 -12.3°
Drops below altitude 10° 20:48:39 10° 148° (SSE) 2,036 - -12.4°
Sets 20:51:09 0° 138° (SE) 2,937 - -12.7°
